Content
SEND FEEDBACK

Daily
Averages
Monthly
Summary
United States of America

ROBSON, LOUISIANA


Home > North America > United States > Louisiana
Elevation: 160 feet     Latitude: 32 21N     Longitude: 093 39W

WEATHER
 
SELECT A DAY
Number of Records: 194,403;   Date Range: 1/3/95 - 9/29/14
 
SHARE

PRINT THIS DATA

[ ← Previous Day ]
WEATHER ALMANAC - JANUARY 31, 2013
[ Next Day → ]
[ °C ]   °F
Weather ElementAverageHighLow
Temperature47 °F63.9 °F (3:58 pm)30.4 °F (6:58 am)
Dewpoint25.5 °F30.4 °F (11:58 pm)21.2 °F (3:58 pm)
Humidity49.7 %82 % (3:58 am)20 % (2:58 pm)
Barometer30.22 in30.29 in (11:58 pm)30.17 in (2:58 pm)
Wind Speed7 mph13.8 mph (2:58 pm)
Wind Gust19.6 mph (2:58 pm)
Weather ElementAverage
Visibility10 mi
Wind DirectionSSW (204.8 °)

Weather ElementTotal
Precipitation---
Heating Degree Days17.9 (Base 65)
Averaged from 23 records on January 31, 2013
WEATHER CONDITIONS BREAKOUT
WIND DIRECTION BREAKOUT
WEATHER BY HOUR - JANUARY 31, 2013
[ °C ]   °F
Local TimeTemperatureDewpointHumidityBarometerVisibilityWind DirectionWind SpeedGust SpeedPrecipitationEventsConditions
1:58 AM32.2 °F27.0 °F81 %30.18 in10.0 miSouth (170°)5.8 mphClear
2:58 AM33.3 °F26.4 °F76 %30.18 in10.0 miSouth (180°)5.8 mphClear
3:58 AM31.1 °F26.2 °F82 %30.18 in10.0 miSouth (170°)5.8 mphClear
4:58 AM31.5 °F25.7 °F79 %30.18 in10.0 miSSW (200°)2.3 mphClear
5:58 AM34.2 °F25.3 °F70 %30.19 in10.0 miCalm (330°)Clear
6:58 AM30.4 °F25.5 °F82 %30.19 in10.0 miSouth (170°)3.5 mphClear
7:58 AM33.1 °F28.0 °F82 %30.23 in10.0 miSouth (170°)3.5 mphClear
8:58 AM44.4 °F26.6 °F50 %30.26 in10.0 miSSW (210°)8.1 mphClear
9:58 AM50.5 °F24.6 °F36 %30.25 in10.0 miSW (220°)9.2 mphClear
10:58 AM56.1 °F22.5 °F27 %30.25 in10.0 miWSW (240°)12.7 mph18.4 mphClear
11:58 AM58.3 °F21.9 °F25 %30.24 in10.0 miSW (230°)12.7 mphClear
12:58 PM60.6 °F22.1 °F23 %30.22 in10.0 miWest (260°)9.2 mphClear
1:58 PM62.6 °F21.6 °F21 %30.19 in10.0 miSSW (210°)9.2 mphClear
2:58 PM63.5 °F21.6 °F20 %30.17 in10.0 miSSW (210°)13.8 mph19.6 mphClear
3:58 PM63.9 °F21.2 °F20 %30.18 in10.0 miSW (220°)10.4 mphClear
4:58 PM62.6 °F22.5 °F22 %30.18 in10.0 miSW (230°)11.5 mphClear
5:58 PM58.5 °F24.8 °F27 %30.18 in10.0 miSSW (210°)8.1 mphClear
6:58 PM55.8 °F24.8 °F30 %30.21 in10.0 miSW (220°)3.5 mphClear
7:58 PM49.1 °F29.1 °F46 %30.23 in10.0 miSouth (190°)6.9 mphClear
8:58 PM47.7 °F28.4 °F47 %30.25 in10.0 miSSW (200°)4.6 mphClear
9:58 PM41.4 °F29.7 °F63 %30.26 in10.0 miSouth (170°)5.8 mphClear
10:58 PM41.2 °F30.2 °F65 %30.27 in10.0 miSE (140°)3.5 mphClear
11:58 PM39.9 °F30.4 °F69 %30.29 in10.0 miSSE (160°)4.6 mphClear
Hourly data recorded from KBAD, located miles away from Robson, Louisiana







STORIES FROM OUR PARTNERS